| time (UTC) | temp C | wind direction | speed KPH | gust KPH | rain 1hr cm | rain 24hr cm | rain mn cm | humidity % | barometer mb |
| 20260507155711 | 15 | 214 | 9.7 | 30.6 | 0.00 | 0.03 | 0.00 | 59 | 1014.4 |
| 20260507154912 | 15 | 215 | 8.0 | 30.6 | 0.00 | 0.03 | 0.00 | 58 | 1014.4 |
| 20260507154111 | 15 | 205 | 9.7 | 29.0 | 0.00 | 0.03 | 0.00 | 59 | 1014.7 |
| 20260507153311 | 15 | 209 | 8.0 | 24.1 | 0.00 | 0.03 | 0.00 | 61 | 1014.6 |
| 20260507152512 | 15 | 217 | 6.4 | 22.5 | 0.00 | 0.03 | 0.00 | 60 | 1014.7 |
| 20260507151711 | 15 | 213 | 6.4 | 17.7 | 0.00 | 0.03 | 0.00 | 62 | 1014.7 |
| 20260507150910 | 15 | 241 | 6.4 | 24.1 | 0.00 | 0.03 | 0.00 | 61 | 1015.0 |
| 20260507150112 | 15 | 225 | 6.4 | 17.7 | 0.00 | 0.05 | 0.00 | 61 | 1015.1 |
| 20260507145312 | 14 | 228 | 4.8 | 17.7 | 0.00 | 0.05 | 0.00 | 63 | 1015.2 |
| 20260507144511 | 14 | 211 | 6.4 | 12.9 | 0.00 | 0.05 | 0.00 | 63 | 1015.2 |
| 20260507143711 | 13 | 224 | 4.8 | 11.3 | 0.00 | 0.05 | 0.00 | 64 | 1015.2 |
| 20260507142912 | 13 | 224 | 4.8 | 16.1 | 0.00 | 0.05 | 0.00 | 65 | 1015.3 |
| 20260507142111 | 13 | 226 | 3.2 | 11.3 | 0.00 | 0.05 | 0.00 | 66 | 1015.1 |
| 20260507141311 | 13 | 232 | 3.2 | 11.3 | 0.00 | 0.05 | 0.00 | 64 | 1015.1 |
| 20260507140512 | 12 | 201 | 4.8 | 16.1 | 0.00 | 0.05 | 0.00 | 67 | 1015.3 |
| 20260507135712 | 12 | 203 | 6.4 | 12.9 | 0.00 | 0.05 | 0.00 | 67 | 1015.4 |
| 20260507134912 | 12 | 207 | 4.8 | 14.5 | 0.00 | 0.05 | 0.00 | 68 | 1015.3 |
| 20260507134111 | 12 | 205 | 4.8 | 16.1 | 0.00 | 0.05 | 0.00 | 69 | 1015.3 |
| 20260507133312 | 11 | 196 | 6.4 | 17.7 | 0.00 | 0.05 | 0.00 | 69 | 1015.3 |
| 20260507132511 | 11 | 189 | 1.6 | 8.0 | 0.00 | 0.05 | 0.00 | 72 | 1015.3 |
| 20260507131711 | 11 | 183 | 3.2 | 9.7 | 0.00 | 0.05 | 0.00 | 72 | 1015.3 |
| 20260507130912 | 10 | 193 | 4.8 | 11.3 | 0.00 | 0.05 | 0.00 | 73 | 1015.5 |
| 20260507130111 | 10 | 191 | 4.8 | 11.3 | 0.00 | 0.05 | 0.00 | 73 | 1015.6 |
| 20260507125310 | 10 | 195 | 4.8 | 11.3 | 0.00 | 0.05 | 0.00 | 73 | 1015.7 |
| 20260507124512 | 10 | 189 | 3.2 | 11.3 | 0.00 | 0.05 | 0.00 | 74 | 1015.7 |
| 20260507123711 | 9 | 189 | 3.2 | 9.7 | 0.00 | 0.05 | 0.00 | 74 | 1015.7 |
| 20260507122912 | 8 | 195 | 4.8 | 9.7 | 0.00 | 0.05 | 0.00 | 74 | 1015.7 |
| 20260507122111 | 8 | 191 | 4.8 | 9.7 | 0.00 | 0.05 | 0.00 | 74 | 1015.6 |
| 20260507121312 | 8 | 189 | 4.8 | 8.0 | 0.00 | 0.05 | 0.00 | 74 | 1015.6 |
| 20260507120511 | 8 | 189 | 4.8 | 9.7 | 0.00 | 0.05 | 0.00 | 74 | 1015.7 |
| 20260507115711 | 8 | 189 | 4.8 | 8.0 | 0.00 | 0.05 | 0.00 | 74 | 1015.5 |
| 20260507114912 | 8 | 189 | 4.8 | 8.0 | 0.00 | 0.05 | 0.00 | 73 | 1015.4 |
| 20260507114111 | 8 | 190 | 3.2 | 8.0 | 0.00 | 0.08 | 0.00 | 72 | 1015.4 |
| 20260507113312 | 8 | 191 | 3.2 | 6.4 | 0.00 | 0.08 | 0.00 | 72 | 1015.4 |
| 20260507112512 | 8 | 191 | 3.2 | 6.4 | 0.00 | 0.08 | 0.00 | 71 | 1015.4 |
| 20260507111711 | 8 | 191 | 3.2 | 6.4 | 0.00 | 0.08 | 0.00 | 70 | 1015.4 |
| 20260507110910 | 8 | 191 | 3.2 | 6.4 | 0.00 | 0.08 | 0.00 | 70 | 1015.3 |
| 20260507110112 | 8 | 191 | 3.2 | 6.4 | 0.00 | 0.08 | 0.00 | 69 | 1015.2 |
| 20260507105311 | 8 | 191 | 3.2 | 6.4 | 0.00 | 0.08 | 0.00 | 68 | 1015.2 |
| 20260507104512 | 8 | 191 | 3.2 | 6.4 | 0.00 | 0.08 | 0.00 | 68 | 1015.2 |
| 20260507103712 | 8 | 191 | 3.2 | 6.4 | 0.00 | 0.08 | 0.00 | 67 | 1015.3 |
| 20260507102911 | 8 | 191 | 3.2 | 6.4 | 0.00 | 0.08 | 0.00 | 67 | 1015.4 |
| 20260507102111 | 8 | 192 | 3.2 | 6.4 | 0.00 | 0.08 | 0.00 | 66 | 1015.4 |
| 20260507101311 | 8 | 192 | 3.2 | 8.0 | 0.00 | 0.08 | 0.00 | 66 | 1015.5 |
| 20260507100512 | 8 | 192 | 3.2 | 8.0 | 0.00 | 0.08 | 0.00 | 65 | 1015.4 |
| 20260507095712 | 8 | 193 | 3.2 | 6.4 | 0.00 | 0.08 | 0.00 | 64 | 1015.5 |
| 20260507094912 | 8 | 194 | 3.2 | 6.4 | 0.00 | 0.08 | 0.00 | 63 | 1015.5 |
| 20260507094111 | 8 | 194 | 3.2 | 8.0 | 0.00 | 0.08 | 0.00 | 62 | 1015.5 |
| 20260507093312 | 8 | 195 | 3.2 | 8.0 | 0.00 | 0.08 | 0.00 | 61 | 1015.5 |
| 20260507092512 | 8 | 195 | 3.2 | 8.0 | 0.00 | 0.08 | 0.00 | 61 | 1015.5 |
| 20260507091711 | 9 | 195 | 3.2 | 6.4 | 0.00 | 0.08 | 0.00 | 61 | 1015.6 |
| 20260507090912 | 9 | 197 | 3.2 | 6.4 | 0.00 | 0.08 | 0.00 | 60 | 1015.6 |
| 20260507090112 | 9 | 204 | 3.2 | 6.4 | 0.00 | 0.08 | 0.00 | 59 | 1015.6 |
| 20260507085311 | 9 | 206 | 3.2 | 6.4 | 0.00 | 0.08 | 0.00 | 58 | 1015.6 |
| 20260507084512 | 10 | 204 | 3.2 | 6.4 | 0.00 | 0.08 | 0.00 | 58 | 1015.7 |
| 20260507083711 | 10 | 205 | 3.2 | 8.0 | 0.00 | 0.08 | 0.00 | 57 | 1015.8 |
| 20260507082912 | 10 | 209 | 3.2 | 6.4 | 0.00 | 0.08 | 0.00 | 56 | 1015.9 |
| 20260507082112 | 10 | 208 | 3.2 | 6.4 | 0.00 | 0.08 | 0.00 | 55 | 1015.9 |
| 20260507081311 | 10 | 208 | 3.2 | 6.4 | 0.00 | 0.08 | 0.00 | 55 | 1015.9 |
| 20260507080512 | 10 | 206 | 3.2 | 6.4 | 0.00 | 0.08 | 0.00 | 55 | 1015.7 |
| 20260507075712 | 10 | 197 | 3.2 | 8.0 | 0.00 | 0.08 | 0.00 | 55 | 1015.7 |
| 20260507074911 | 10 | 194 | 3.2 | 6.4 | 0.00 | 0.08 | 0.00 | 57 | 1015.6 |
| 20260507074112 | 10 | 194 | 3.2 | 6.4 | 0.00 | 0.08 | 0.00 | 57 | 1015.7 |
| 20260507073312 | 10 | 194 | 3.2 | 6.4 | 0.00 | 0.08 | 0.00 | 57 | 1015.8 |
| 20260507072511 | 10 | 194 | 1.6 | 4.8 | 0.00 | 0.13 | 0.00 | 56 | 1015.8 |
| 20260507071712 | 10 | 194 | 3.2 | 6.4 | 0.00 | 0.13 | 0.00 | 56 | 1016.1 |
| 20260507070911 | 10 | 194 | 1.6 | 6.4 | 0.00 | 0.13 | 0.00 | 56 | 1016.1 |
| 20260507070112 | 10 | 194 | 3.2 | 4.8 | 0.00 | 0.13 | 0.00 | 55 | 1016.3 |
| 20260507065312 | 10 | 194 | 1.6 | 4.8 | 0.00 | 0.13 | 0.00 | 54 | 1016.3 |
| 20260507064512 | 10 | 196 | 3.2 | 6.4 | 0.00 | 0.13 | 0.00 | 54 | 1016.4 |
| 20260507063712 | 11 | 197 | 1.6 | 4.8 | 0.00 | 0.13 | 0.00 | 53 | 1016.5 |
| 20260507062911 | 11 | 197 | 3.2 | 4.8 | 0.00 | 0.13 | 0.00 | 52 | 1016.5 |
| 20260507062111 | 11 | 196 | 3.2 | 6.4 | 0.00 | 0.13 | 0.00 | 52 | 1016.5 |
| 20260507061312 | 11 | 194 | 1.6 | 6.4 | 0.00 | 0.13 | 0.00 | 51 | 1016.5 |
| 20260507060512 | 11 | 192 | 1.6 | 8.0 | 0.00 | 0.13 | 0.00 | 51 | 1016.5 |
| 20260507055711 | 11 | 191 | 1.6 | 4.8 | 0.00 | 0.13 | 0.00 | 52 | 1016.5 |
| 20260507054912 | 11 | 192 | 3.2 | 6.4 | 0.00 | 0.13 | 0.00 | 52 | 1016.5 |
| 20260507054112 | 11 | 192 | 1.6 | 6.4 | 0.00 | 0.13 | 0.00 | 53 | 1016.5 |
| 20260507053312 | 11 | 193 | 1.6 | 6.4 | 0.00 | 0.13 | 0.00 | 53 | 1016.5 |
| 20260507052511 | 10 | 195 | 3.2 | 6.4 | 0.00 | 0.13 | 0.00 | 54 | 1016.4 |
| 20260507051712 | 10 | 203 | 3.2 | 6.4 | 0.00 | 0.13 | 0.00 | 55 | 1016.6 |
| 20260507050911 | 11 | 225 | 3.2 | 6.4 | 0.00 | 0.13 | 0.00 | 55 | 1016.4 |
| 20260507050112 | 10 | 228 | 3.2 | 6.4 | 0.00 | 0.13 | 0.00 | 54 | 1016.4 |
| 20260507045312 | 10 | 228 | 3.2 | 6.4 | 0.00 | 0.13 | 0.13 | 54 | 1016.5 |
| 20260507044511 | 10 | 242 | 3.2 | 6.4 | 0.00 | 0.13 | 0.13 | 54 | 1016.5 |
| 20260507043713 | 10 | 250 | 3.2 | 4.8 | 0.00 | 0.13 | 0.13 | 54 | 1016.5 |
| 20260507042912 | 10 | 252 | 1.6 | 4.8 | 0.00 | 0.13 | 0.13 | 54 | 1016.4 |
| 20260507042111 | 10 | 0 | 0.0 | 0.0 | 0.00 | 0.13 | 0.13 | 56 | 1016.4 |
| 20260507041312 | 10 | 0 | 0.0 | 0.0 | 0.00 | 0.13 | 0.13 | 54 | 1016.6 |
| 20260507040512 | 11 | 0 | 0.0 | 0.0 | 0.00 | 0.13 | 0.08 | 50 | 1016.7 |
| 20260507035711 | 11 | 0 | 0.0 | 0.0 | 0.00 | 0.13 | 0.08 | 50 | 1016.7 |
| 20260507034912 | 10 | 0 | 0.0 | 0.0 | 0.00 | 0.13 | 0.08 | 50 | 1016.9 |
| 20260507034111 | 10 | 0 | 0.0 | 0.0 | 0.00 | 0.13 | 0.08 | 52 | 1017.0 |
| 20260507033311 | 10 | 0 | 0.0 | 0.0 | 0.00 | 0.13 | 0.08 | 54 | 1016.8 |
| 20260507032512 | 10 | 0 | 0.0 | 0.0 | 0.00 | 0.13 | 0.08 | 57 | 1016.7 |
| 20260507031711 | 10 | 0 | 0.0 | 0.0 | 0.00 | 0.13 | 0.08 | 50 | 1016.6 |
| 20260507030912 | 11 | 0 | 0.0 | 0.0 | 0.00 | 0.13 | 0.08 | 49 | 1016.7 |
| 20260507030111 | 11 | 0 | 0.0 | 0.0 | 0.00 | 0.13 | 0.08 | 50 | 1016.6 |
| 20260507025312 | 11 | 0 | 0.0 | 0.0 | 0.00 | 0.13 | 0.08 | 49 | 1016.7 |
| 20260507024511 | 11 | 0 | 0.0 | 0.0 | 0.00 | 0.13 | 0.08 | 49 | 1016.6 |
| 20260507023711 | 11 | 0 | 0.0 | 0.0 | 0.00 | 0.13 | 0.08 | 48 | 1016.4 |
| 20260507022912 | 11 | 0 | 0.0 | 0.0 | 0.00 | 0.13 | 0.08 | 50 | 1016.5 |
| 20260507022111 | 11 | 0 | 0.0 | 0.0 | 0.00 | 0.13 | 0.08 | 53 | 1016.4 |
| 20260507021312 | 11 | 0 | 0.0 | 0.0 | 0.00 | 0.13 | 0.08 | 47 | 1016.3 |
| 20260507020512 | 12 | 0 | 0.0 | 0.0 | 0.00 | 0.13 | 0.08 | 47 | 1016.2 |
| 20260507015712 | 12 | 0 | 0.0 | 0.0 | 0.00 | 0.13 | 0.08 | 44 | 1016.1 |
| 20260507014911 | 12 | 0 | 0.0 | 0.0 | 0.00 | 0.13 | 0.08 | 45 | 1016.1 |
| 20260507014111 | 12 | 0 | 0.0 | 0.0 | 0.00 | 0.13 | 0.08 | 45 | 1016.1 |
| 20260507013312 | 12 | 0 | 0.0 | 0.0 | 0.00 | 0.13 | 0.08 | 46 | 1016.1 |
| 20260507012511 | 12 | 0 | 0.0 | 0.0 | 0.00 | 0.13 | 0.08 | 45 | 1016.1 |
| 20260507011712 | 13 | 0 | 0.0 | 0.0 | 0.00 | 0.13 | 0.08 | 44 | 1016.0 |
| 20260507010911 | 13 | 0 | 0.0 | 0.0 | 0.00 | 0.13 | 0.08 | 43 | 1015.9 |
| 20260507010111 | 14 | 0 | 0.0 | 0.0 | 0.00 | 0.13 | 0.08 | 40 | 1015.9 |
| 20260507005312 | 14 | 0 | 0.0 | 0.0 | 0.00 | 0.13 | 0.08 | 39 | 1016.0 |
| 20260507004511 | 14 | 295 | 0.0 | 4.8 | 0.00 | 0.13 | 0.08 | 38 | 1015.9 |
| 20260507003712 | 15 | 307 | 1.6 | 9.7 | 0.00 | 0.13 | 0.08 | 36 | 1015.9 |
| 20260507002912 | 15 | 307 | 1.6 | 9.7 | 0.00 | 0.13 | 0.08 | 36 | 1015.9 |
| 20260507002111 | 15 | 312 | 1.6 | 11.3 | 0.00 | 0.13 | 0.08 | 37 | 1015.9 |
| 20260507001312 | 15 | 325 | 3.2 | 11.3 | 0.00 | 0.18 | 0.08 | 36 | 1015.7 |
| 20260507000511 | 15 | 332 | 3.2 | 14.5 | 0.00 | 0.18 | 0.08 | 36 | 1015.8 |
| 20260506235712 | 15 | 1 | 3.2 | 14.5 | 0.00 | 0.18 | 0.08 | 35 | 1015.9 |
| 20260506234911 | 15 | 326 | 1.6 | 11.3 | 0.00 | 0.18 | 0.08 | 36 | 1015.9 |
| 20260506234111 | 15 | 315 | 3.2 | 11.3 | 0.00 | 0.18 | 0.08 | 36 | 1016.0 |
| 20260506233312 | 15 | 329 | 3.2 | 11.3 | 0.00 | 0.18 | 0.08 | 35 | 1015.9 |
| 20260506232511 | 15 | 339 | 3.2 | 16.1 | 0.00 | 0.18 | 0.08 | 35 | 1016.0 |
| 20260506231712 | 15 | 355 | 1.6 | 14.5 | 0.00 | 0.18 | 0.08 | 35 | 1016.0 |
| 20260506230911 | 15 | 305 | 3.2 | 17.7 | 0.00 | 0.18 | 0.08 | 36 | 1016.0 |
| 20260506230112 | 15 | 339 | 4.8 | 22.5 | 0.00 | 0.18 | 0.08 | 35 | 1016.0 |
| 20260506225311 | 15 | 330 | 4.8 | 22.5 | 0.00 | 0.18 | 0.08 | 34 | 1016.0 |
| 20260506224511 | 15 | 294 | 4.8 | 16.1 | 0.00 | 0.18 | 0.08 | 35 | 1015.9 |
| 20260506223711 | 15 | 304 | 4.8 | 19.3 | 0.00 | 0.18 | 0.08 | 34 | 1016.0 |
| 20260506222912 | 16 | 354 | 1.6 | 8.0 | 0.00 | 0.18 | 0.08 | 34 | 1016.0 |
| 20260506222111 | 16 | 11 | 3.2 | 11.3 | 0.00 | 0.18 | 0.08 | 36 | 1016.0 |
| 20260506221312 | 16 | 28 | 3.2 | 11.3 | 0.00 | 0.18 | 0.08 | 34 | 1016.1 |
| 20260506220511 | 16 | 7 | 4.8 | 14.5 | 0.00 | 0.18 | 0.08 | 34 | 1016.1 |
| 20260506215712 | 16 | 334 | 4.8 | 22.5 | 0.00 | 0.18 | 0.08 | 34 | 1016.1 |
| 20260506214911 | 16 | 310 | 4.8 | 14.5 | 0.00 | 0.18 | 0.08 | 35 | 1016.1 |
| 20260506214112 | 16 | 315 | 4.8 | 17.7 | 0.00 | 0.18 | 0.08 | 36 | 1016.2 |
| 20260506213311 | 16 | 326 | 4.8 | 17.7 | 0.00 | 0.18 | 0.08 | 35 | 1016.4 |
| 20260506212511 | 16 | 334 | 4.8 | 16.1 | 0.00 | 0.18 | 0.08 | 37 | 1016.5 |
| 20260506211712 | 16 | 24 | 4.8 | 16.1 | 0.00 | 0.18 | 0.08 | 37 | 1016.4 |
| 20260506210912 | 16 | 23 | 1.6 | 16.1 | 0.00 | 0.18 | 0.08 | 34 | 1016.5 |
| 20260506210112 | 16 | 314 | 4.8 | 19.3 | 0.00 | 0.18 | 0.08 | 36 | 1016.6 |
| 20260506205311 | 16 | 333 | 3.2 | 17.7 | 0.00 | 0.18 | 0.08 | 36 | 1016.8 |
| 20260506204512 | 16 | 354 | 3.2 | 11.3 | 0.00 | 0.23 | 0.08 | 37 | 1016.8 |
| 20260506203711 | 15 | 309 | 4.8 | 11.3 | 0.00 | 0.23 | 0.08 | 36 | 1016.9 |
| 20260506202912 | 15 | 319 | 3.2 | 11.3 | 0.00 | 0.23 | 0.08 | 36 | 1017.1 |
| 20260506202111 | 15 | 309 | 4.8 | 24.1 | 0.00 | 0.23 | 0.08 | 37 | 1017.3 |
| 20260506201312 | 15 | 343 | 4.8 | 22.5 | 0.00 | 0.23 | 0.08 | 36 | 1017.2 |
| 20260506200511 | 15 | 307 | 8.0 | 27.4 | 0.00 | 0.23 | 0.08 | 36 | 1017.3 |
| 20260506195711 | 15 | 299 | 1.6 | 27.4 | 0.00 | 0.23 | 0.08 | 38 | 1017.3 |
| 20260506194912 | 15 | 337 | 3.2 | 17.7 | 0.00 | 0.18 | 0.05 | 35 | 1017.5 |
| 20260506194111 | 15 | 355 | 4.8 | 17.7 | 0.00 | 0.18 | 0.05 | 36 | 1017.6 |
| 20260506193312 | 15 | 341 | 3.2 | 14.5 | 0.00 | 0.18 | 0.05 | 36 | 1017.6 |
| 20260506192512 | 15 | 330 | 3.2 | 14.5 | 0.00 | 0.18 | 0.05 | 40 | 1017.6 |
| 20260506191711 | 15 | 314 | 3.2 | 16.1 | 0.00 | 0.18 | 0.05 | 39 | 1017.6 |
| 20260506190912 | 15 | 303 | 3.2 | 17.7 | 0.00 | 0.23 | 0.05 | 35 | 1017.8 |
| 20260506190112 | 15 | 320 | 3.2 | 14.5 | 0.00 | 0.23 | 0.05 | 39 | 1017.6 |
| 20260506185311 | 15 | 7 | 3.2 | 14.5 | 0.00 | 0.23 | 0.05 | 36 | 1017.7 |
| 20260506184511 | 15 | 55 | 3.2 | 14.5 | 0.00 | 0.23 | 0.05 | 36 | 1017.9 |
| 20260506183712 | 14 | 346 | 1.6 | 11.3 | 0.00 | 0.23 | 0.05 | 38 | 1017.8 |
| 20260506182911 | 14 | 359 | 1.6 | 11.3 | 0.00 | 0.23 | 0.05 | 40 | 1018.0 |
| 20260506182112 | 13 | 38 | 1.6 | 9.7 | 0.00 | 0.23 | 0.05 | 42 | 1018.0 |
| 20260506181312 | 13 | 353 | 1.6 | 9.7 | 0.00 | 0.23 | 0.05 | 38 | 1018.3 |
| 20260506180511 | 13 | 338 | 3.2 | 16.1 | 0.00 | 0.23 | 0.05 | 39 | 1018.3 |
| 20260506175712 | 13 | 326 | 1.6 | 8.0 | 0.00 | 0.23 | 0.05 | 41 | 1018.3 |
| 20260506174913 | 13 | 7 | 1.6 | 14.5 | 0.00 | 0.25 | 0.05 | 41 | 1018.4 |
| 20260506174112 | 13 | 26 | 3.2 | 11.3 | 0.00 | 0.25 | 0.05 | 41 | 1018.4 |
| 20260506173311 | 13 | 2 | 3.2 | 9.7 | 0.00 | 0.25 | 0.05 | 40 | 1018.4 |
| 20260506172512 | 13 | 297 | 4.8 | 14.5 | 0.00 | 0.25 | 0.05 | 39 | 1018.4 |
| 20260506171711 | 13 | 309 | 6.4 | 16.1 | 0.00 | 0.25 | 0.05 | 38 | 1018.4 |
| 20260506170912 | 13 | 314 | 3.2 | 16.1 | 0.00 | 0.25 | 0.05 | 39 | 1018.4 |
| 20260506170113 | 13 | 347 | 3.2 | 14.5 | 0.00 | 0.25 | 0.05 | 41 | 1018.4 |
| 20260506165311 | 13 | 319 | 4.8 | 16.1 | 0.00 | 0.25 | 0.05 | 38 | 1018.4 |
| 20260506164512 | 13 | 311 | 4.8 | 16.1 | 0.00 | 0.25 | 0.05 | 40 | 1018.4 |
| 20260506163711 | 13 | 323 | 4.8 | 22.5 | 0.00 | 0.25 | 0.05 | 40 | 1018.3 |
| 20260506162912 | 13 | 1 | 3.2 | 16.1 | 0.00 | 0.25 | 0.05 | 43 | 1018.3 |
| 20260506162111 | 12 | 355 | 3.2 | 17.7 | 0.00 | 0.25 | 0.05 | 41 | 1018.3 |
| 20260506161312 | 13 | 335 | 3.2 | 14.5 | 0.00 | 0.25 | 0.05 | 46 | 1018.2 |
| 20260506160511 | 12 | 318 | 3.2 | 16.1 | 0.00 | 0.25 | 0.05 | 41 | 1018.2 |